Lid_Strength_Index
1 1 1 3 7 8 10 9 6 7 6 5 4 6 7 6 8 12 1 1 0 0 -0 -1 -2 -2 -1 -1 -1 -1 -1 -2 -2 -1 -2 -2 -1 -1 -1 -1 -2 -1 -1 -1 -1 -2 -2 -1 -2
2 2 3 4 9 11 10 7 8 7 6 4 4 5 7 8 4 4 3 0 -0 -0 -0 -0 -2 -2 -1 -1 -1 -1 -1 -1 -2 -2 -2 -1 -1 -1 -1 -1 -2 -1 -2 -1 -1 -1 -2 -2 -1
2 2 6 7 9 10 10 7 7 7 5 4 5 5 6 7 3 3 1 -0 -0 -0 -1 -1 -1 -1 -2 -2 -2 -2 -1 -1 -1 -2 -2 -2 -1 -1 -1 -1 -1 -1 -1 -1 -1 -1 -2 -1 -1
3 3 5 9 9 8 8 7 7 6 4 4 4 7 4 2 3 1 0 -0 0 -0 -0 -1 -1 -1 -2 -2 -2 -2 -2 -1 -1 -1 -2 -1 -1 -0 0 -1 -1 -1 -1 -1 0 -0 -2 -1 -1
3 4 8 9 9 8 6 6 5 6 5 5 4 8 7 3 1 1 0 0 1 0 -0 -1 -1 -1 -1 -1 -2 -1 -1 -1 -1 -1 -1 -1 -1 -1 -1 -1 -1 -2 -1 1 -0 -1 -2 -2 -1
6 5 9 10 9 6 5 4 5 5 5 5 7 8 6 2 2 1 0 0 -0 0 -0 -1 -1 -1 -1 -1 -1 -1 -1 -1 -1 -1 -1 -1 -1 -1 -1 -1 -1 -1 -1 -1 -1 -1 -2 -1 -2
6 7 9 9 8 7 6 4 6 5 5 5 4 8 5 3 2 1 0 0 -0 -0 -0 -0 -1 -1 -1 -1 -1 -1 -1 -1 -1 -1 -1 -1 -1 -1 -1 -1 -1 -0 -0 -1 -1 -1 -1 -2 -1
5 6 8 8 9 8 5 5 4 5 6 4 3 6 8 3 1 1 0 0 -0 -0 -0 -0 -1 -1 -0 1 -0 -1 -1 -1 -1 -1 -1 -1 -1 -1 -0 -1 -1 -1 -1 0 1 1 -0 -1 -1
3 7 9 8 8 7 5 6 4 3 4 4 3 3 3 2 1 2 2 1 1 0 0 -0 -0 -1 -1 -1 -1 -1 -1 -1 -1 -1 -1 -1 -1 -1 -0 0 -0 0 -0 -1 0 1 0 0 -1
5 8 8 6 6 6 5 6 5 5 5 5 4 3 2 2 2 3 2 2 2 1 0 0 -0 -0 -1 -1 -1 -1 -1 -1 -1 -1 -1 -1 -1 -0 -1 -0 -0 -0 0 0 1 2 2 1 1
5 8 6 5 5 5 5 5 4 5 6 5 5 4 3 2 2 2 2 2 2 1 1 0 -0 -1 -0 -0 -1 -0 -1 -1 -1 -1 -1 -1 -1 -0 -0 -0 -0 -0 -0 -0 -0 1 2 2 1
6 5 5 5 4 5 5 4 5 5 5 3 3 3 3 3 3 2 2 1 1 1 1 0 -0 -0 -0 -1 -0 -0 -0 -1 -0 -1 -1 -0 0 0 0 -0 0 0 -0 -0 -0 1 0 0 -0
6 5 5 4 4 5 4 5 5 5 3 3 3 3 3 3 3 2 0 0 -1 0 1 0 -0 -0 -0 -0 -0 -0 -0 -0 -1 -1 -1 -1 0 0 0 0 0 0 0 0 0 0 0 0 -0
5 5 5 5 5 4 5 5 5 4 3 3 3 3 3 3 2 2 2 2 1 1 0 0 0 -0 -1 0 -0 -0 -1 -1 -1 -1 -1 -1 -0 0 0 0 0 0 0 0 -0 0 0 0 0
5 6 6 5 5 6 5 7 7 4 3 4 4 3 3 3 2 2 2 2 1 1 0 0 0 -0 -0 -0 -0 -0 0 1 0 -0 -0 -0 -1 0 1 1 1 1 0 0 1 1 0 0 0
6 6 9 6 5 5 6 9 6 4 5 5 5 4 4 3 3 2 2 2 1 1 1 1 2 1 1 0 1 1 2 1 1 0 1 1 1 1 2 2 2 2 2 2 3 3 3 2 1
7 10 9 8 5 6 7 8 6 4 5 5 5 4 4 4 3 3 2 2 2 1 2 2 2 2 2 2 2 2 2 2 2 1 2 2 2 2 3 3 3 3 4 4 5 5 5 6 5
10 10 9 9 7 6 7 7 6 5 5 5 4 4 4 4 3 2 2 2 2 1 2 2 2 2 2 2 2 2 2 2 2 2 3 2 3 3 4 3 3 4 4 5 5 5 5 5 6
8 8 9 8 6 7 8 7 6 5 5 5 5 4 4 4 3 2 2 1 2 1 2 3 3 3 3 4 4 4 4 4 3 3 3 3 3 3 4 4 5 4 5 5 5 5 6 6 5
8 9 9 7 6 7 8 8 6 6 6 5 5 5 4 4 3 3 2 2 2 2 2 3 3 3 3 4 4 4 3 4 4 3 3 3 3 4 4 4 5 5 5 5 5 5 6 6 6
9 9 9 9 7 7 8 9 8 7 6 5 5 4 4 5 5 4 3 2 2 3 3 3 3 4 4 4 4 4 4 4 5 5 5 4 4 3 3 4 4 5 5 5 5 6 6 7 6
10 7 8 9 10 12 8 13 9 7 7 6 5 4 4 4 4 4 3 3 3 3 2 3 3 3 4 3 5 5 6 7 6 6 5 5 4 4 4 4 3 4 4 5 5 4 5 6 8
9 7 8 8 10 10 10 11 9 8 8 7 6 5 5 4 4 4 4 4 3 3 2 3 3 3 3 3 4 5 5 5 5 5 5 5 4 4 4 3 3 4 4 4 5 5 5 5 6
6 8 8 8 10 15 11 11 11 9 8 8 6 5 5 5 5 4 4 4 4 3 3 2 3 3 3 3 4 4 6 5 6 6 6 5 5 5 4 4 5 5 5 5 5 6 6 6 6
7 10 16 17 17 17 10 11 10 7 6 6 7 6 5 5 5 5 5 4 4 4 3 3 3 4 3 3 4 4 5 5 5 5 6 5 6 6 6 5 6 5 5 5 5 6 6 6 6
9 10 16 20 18 16 10 13 10 6 6 6 6 5 5 4 4 4 4 3 4 3 3 3 4 4 4 4 4 4 4 5 5 5 5 6 6 6 5 5 5 5 5 5 5 6 6 6 6
9 11 8 13 14 16 13 10 8 6 6 6 6 5 5 5 4 4 4 3 3 3 3 3 3 3 4 3 4 4 4 5 6 5 6 6 5 6 5 5 5 5 5 5 6 6 7 6 7
8 7 13 13 20 20 14 13 12 9 8 7 6 6 5 4 4 4 4 4 4 3 3 3 3 4 4 4 4 5 5 5 6 5 6 6 6 6 5 5 5 6 6 6 6 7 7 7 7
9 11 10 10 13 18 20 15 8 8 7 7 6 5 5 4 4 4 4 4 4 3 4 4 4 5 5 5 5 6 6 5 6 6 6 6 6 6 5 6 6 6 6 7 7 7 7 8 8
8 9 10 16 16 14 16 15 7 7 6 6 6 5 5 4 4 5 4 4 4 4 4 4 5 5 6 6 6 7 6 6 6 6 6 6 6 5 5 6 6 6 7 7 8 8 8 8 8